START_TIME,STEP,MOV.,M34,t_acc.,L5,t_acc.,L18,t_acc.,L14,t_acc.
1980-11-16 00:00:13.300 ,3,0,0.,12.0,0.,12.0,0.,12.0,0.,12.0
1980-11-16 00:00:25.300 ,3,0,0.,12.0,0.,12.0,0.,12.0,0.,12.0
1980-11-16 00:00:37.300 ,4,1,0.,12.0,0.,12.0,0.,12.0,0.,12.0
1980-11-16 00:00:49.300 ,4,1,0.,12.0,0.,12.0,0.,12.0,0.,12.0
1980-11-16 00:01:01.300 ,4,0,0.,12.0,0.,12.0,0.,12.0,0.,12.0
1980-11-16 00:01:13.300 ,4,0,0.,12.0,0.,12.0,0.,12.0,0.,12.0
1980-11-16 00:01:25.300 ,5,1,0.,12.0,0.,12.0,0.,12.0,0.,12.0
1980-11-16 00:01:37.300 ,5,1,0.,12.0,0.,12.0,0.,12.0,0.,12.0
1980-11-16 00:01:49.300 ,5,0,0.,12.0,0.,12.0,0.,12.0,0.,12.0
1980-11-16 00:02:01.300 ,5,0,0.,12.0,0.,12.0,0.,12.0,0.,12.0
1980-11-16 00:02:13.300 ,6,1,0.,12.0,0.,12.0,0.,12.0,0.,12.0
1980-11-16 00:02:25.300 ,6,1,0.,12.0,0.,12.0,0.,12.0,0.,12.0
1980-11-16 00:02:37.300 ,6,0,0.,12.0,0.,12.0,0.,12.0,0.,12.0
1980-11-16 00:02:49.300 ,6,0,0.,12.0,0.,12.0,0.,12.0,0.,12.0
1980-11-16 00:03:01.300 ,7,1,0.,12.0,0.,12.0,0.,12.0,0.,12.0
1980-11-16 00:03:13.300 ,7,1,0.,12.0,2.,12.0,0.,12.0,0.,12.0
1980-11-16 00:03:25.300 ,7,0,0.,12.0,1.,12.0,0.,12.0,0.,12.0
1980-11-16 00:03:37.300 ,7,0,0.,12.0,3.,12.0,0.,12.0,0.,12.0
1980-11-16 00:03:49.300 ,7,1,0.,12.0,2.,12.0,0.,12.0,0.,12.0
1980-11-16 00:04:01.300 ,7,1,0.,12.0,7.,12.0,0.,12.0,0.,12.0
1980-11-16 00:04:13.300 ,7,0,0.,12.0,5.,12.0,0.,12.0,0.,12.0
1980-11-16 00:04:25.300 ,7,0,0.,12.0,2.,12.0,0.,12.0,0.,12.0
1980-11-16 00:04:37.300 ,6,1,0.,12.0,5.,12.0,0.,12.0,0.,12.0
1980-11-16 00:04:49.300 ,6,1,0.,12.0,0.,12.0,0.,12.0,0.,12.0
1980-11-16 00:05:01.300 ,6,0,0.,12.0,0.,12.0,0.,12.0,0.,12.0
1980-11-16 00:05:13.300 ,6,0,0.,12.0,0.,12.0,0.,12.0,0.,12.0
1980-11-16 00:05:25.300 ,5,1,0.,12.0,0.,12.0,0.,12.0,0.,12.0
1980-11-16 00:05:37.300 ,5,1,0.,12.0,0.,12.0,0.,12.0,0.,12.0
1980-11-16 00:05:49.300 ,5,0,0.,12.0,0.,12.0,0.,12.0,0.,12.0
1980-11-16 00:06:01.300 ,5,0,0.,12.0,0.,12.0,0.,12.0,0.,12.0
1980-11-16 00:06:13.300 ,0,0,0.,12.0,0.,12.0,0.,12.0,0.,12.0
1980-11-16 00:06:25.300 ,0,0,0.,12.0,0.,12.0,0.,12.0,0.,12.0
1980-11-16 00:07:01.300 ,3,1,0.,12.0,0.,12.0,0.,12.0,0.,12.0
1980-11-16 00:07:13.300 ,3,1,0.,12.0,0.,12.0,0.,12.0,0.,12.0
1980-11-16 00:07:25.300 ,3,0,0.,12.0,0.,12.0,0.,12.0,0.,12.0
1980-11-16 00:07:37.300 ,3,0,0.,12.0,0.,12.0,0.,12.0,0.,12.0
1980-11-16 00:07:49.300 ,2,1,0.,12.0,0.,12.0,0.,12.0,0.,12.0
1980-11-16 00:08:01.300 ,2,1,0.,12.0,0.,12.0,0.,12.0,0.,12.0
1980-11-16 00:08:13.300 ,2,0,0.,12.0,0.,12.0,0.,12.0,0.,12.0
1980-11-16 00:08:25.300 ,2,0,0.,12.0,0.,12.0,0.,12.0,0.,12.0
1980-11-16 00:08:37.300 ,1,1,0.,12.0,0.,12.0,0.,12.0,0.,12.0
1980-11-16 00:08:49.300 ,1,1,0.,12.0,0.,12.0,0.,12.0,0.,12.0
1980-11-16 00:09:01.300 ,1,0,0.,12.0,0.,12.0,0.,12.0,0.,12.0
1980-11-16 00:09:13.300 ,1,0,0.,12.0,0.,12.0,0.,12.0,0.,12.0
1980-11-16 00:09:25.300 ,0,1,0.,12.0,0.,12.0,0.,12.0,0.,12.0
1980-11-16 00:09:37.300 ,0,1,0.,12.0,0.,12.0,0.,12.0,0.,12.0
1980-11-16 00:09:49.300 ,0,0,0.,12.0,0.,12.0,0.,12.0,0.,12.0
1980-11-16 00:10:01.300 ,0,0,0.,12.0,0.,12.0,0.,12.0,0.,12.0
1980-11-16 00:10:13.300 ,0,1,0.,12.0,0.,12.0,0.,12.0,0.,12.0
1980-11-16 00:10:25.300 ,0,1,0.,12.0,0.,12.0,0.,12.0,0.,12.0
1980-11-16 00:10:37.300 ,0,0,0.,12.0,0.,12.0,0.,12.0,0.,12.0
1980-11-16 00:10:49.300 ,0,0,0.,12.0,0.,12.0,0.,12.0,0.,12.0
1980-11-16 00:11:01.300 ,1,1,0.,12.0,0.,12.0,0.,12.0,0.,12.0
1980-11-16 00:11:13.300 ,1,1,0.,12.0,0.,12.0,0.,12.0,0.,12.0
1980-11-16 00:11:25.300 ,1,0,0.,12.0,0.,12.0,0.,12.0,0.,12.0
1980-11-16 00:11:37.300 ,1,0,0.,12.0,0.,12.0,0.,12.0,0.,12.0
1980-11-16 00:11:49.300 ,2,1,0.,12.0,0.,12.0,0.,12.0,0.,12.0
1980-11-16 00:12:01.300 ,2,1,0.,12.0,0.,12.0,0.,12.0,0.,12.0
1980-11-16 00:12:13.300 ,2,0,0.,12.0,0.,12.0,0.,12.0,0.,12.0
1980-11-16 00:12:25.300 ,2,0,0.,12.0,0.,12.0,0.,12.0,0.,12.0
1980-11-16 00:12:37.300 ,3,1,0.,12.0,0.,12.0,0.,12.0,0.,12.0
1980-11-16 00:12:49.300 ,3,1,0.,12.0,0.,12.0,0.,12.0,0.,12.0
1980-11-16 00:13:01.300 ,3,0,0.,12.0,0.,12.0,0.,12.0,0.,12.0
1980-11-16 00:13:13.300 ,3,0,0.,12.0,0.,12.0,0.,12.0,0.,12.0
1980-11-16 00:13:25.300 ,4,1,0.,12.0,0.,12.0,0.,12.0,0.,12.0
1980-11-16 00:13:37.300 ,4,1,0.,12.0,0.,12.0,0.,12.0,0.,12.0
1980-11-16 00:13:49.300 ,4,0,0.,12.0,0.,12.0,0.,12.0,0.,12.0
1980-11-16 00:14:01.300 ,4,0,0.,12.0,0.,12.0,0.,12.0,0.,12.0
1980-11-16 00:14:13.300 ,5,1,0.,12.0,0.,12.0,0.,12.0,0.,12.0
1980-11-16 00:14:25.300 ,5,1,0.,12.0,0.,12.0,0.,12.0,0.,12.0
1980-11-16 00:14:37.300 ,5,0,0.,12.0,0.,12.0,0.,12.0,0.,12.0
1980-11-16 00:14:49.300 ,5,0,0.,12.0,0.,12.0,0.,12.0,0.,12.0
1980-11-16 00:15:01.300 ,6,1,0.,12.0,0.,12.0,0.,12.0,0.,12.0
1980-11-16 00:15:13.300 ,6,1,0.,12.0,0.,12.0,0.,12.0,0.,12.0
1980-11-16 00:15:25.300 ,6,0,0.,12.0,0.,12.0,0.,12.0,0.,12.0
1980-11-16 00:15:37.300 ,6,0,0.,12.0,0.,12.0,0.,12.0,0.,12.0
1980-11-16 00:15:49.300 ,7,1,0.,12.0,0.,12.0,0.,12.0,0.,12.0
1980-11-16 00:16:01.300 ,7,1,0.,12.0,4.,12.0,0.,12.0,0.,12.0
1980-11-16 00:16:13.300 ,7,0,0.,12.0,4.,12.0,0.,12.0,0.,12.0
1980-11-16 00:16:25.300 ,7,0,0.,12.0,2.,12.0,0.,12.0,0.,12.0
1980-11-16 00:16:37.300 ,7,1,0.,12.0,3.,12.0,0.,12.0,0.,12.0
1980-11-16 00:16:49.300 ,7,1,0.,12.0,1.,12.0,0.,12.0,0.,12.0
1980-11-16 00:17:01.300 ,7,0,0.,12.0,1.,12.0,0.,12.0,0.,12.0
1980-11-16 00:17:13.300 ,7,0,0.,12.0,7.,12.0,0.,12.0,0.,12.0
1980-11-16 00:17:25.300 ,6,1,0.,12.0,3.,12.0,0.,12.0,0.,12.0
1980-11-16 00:17:37.300 ,6,1,0.,12.0,2.,12.0,0.,12.0,0.,12.0
1980-11-16 00:17:49.300 ,6,0,0.,12.0,0.,12.0,0.,12.0,0.,12.0
1980-11-16 00:18:01.300 ,6,0,0.,12.0,0.,12.0,0.,12.0,0.,12.0
1980-11-16 00:18:13.300 ,5,1,0.,12.0,0.,12.0,0.,12.0,0.,12.0
1980-11-16 00:18:25.300 ,5,1,0.,12.0,0.,12.0,0.,12.0,0.,12.0
1980-11-16 00:18:37.300 ,5,0,0.,12.0,0.,12.0,0.,12.0,0.,12.0
1980-11-16 00:18:49.300 ,5,0,0.,12.0,0.,12.0,0.,12.0,0.,12.0
1980-11-16 00:19:01.300 ,4,1,0.,12.0,0.,12.0,0.,12.0,0.,12.0
1980-11-16 00:19:13.300 ,4,1,0.,12.0,0.,12.0,0.,12.0,0.,12.0
1980-11-16 00:19:25.300 ,4,0,0.,12.0,0.,12.0,0.,12.0,0.,12.0
1980-11-16 00:19:37.300 ,4,0,0.,12.0,0.,12.0,0.,12.0,0.,12.0
1980-11-16 00:19:49.300 ,3,1,0.,12.0,0.,12.0,0.,12.0,0.,12.0
1980-11-16 00:20:01.300 ,3,1,0.,12.0,0.,12.0,0.,12.0,0.,12.0
1980-11-16 00:20:13.300 ,3,0,0.,12.0,0.,12.0,0.,12.0,0.,12.0
1980-11-16 00:20:25.300 ,3,0,0.,12.0,0.,12.0,0.,12.0,0.,12.0
1980-11-16 00:20:37.300 ,2,1,0.,12.0,0.,12.0,0.,12.0,0.,12.0
1980-11-16 00:20:49.300 ,2,1,0.,12.0,0.,12.0,0.,12.0,0.,12.0
1980-11-16 00:21:01.300 ,2,0,0.,12.0,0.,12.0,1.,12.0,0.,12.0
1980-11-16 00:21:13.300 ,2,0,0.,12.0,0.,12.0,0.,12.0,0.,12.0
1980-11-16 00:21:25.300 ,1,1,0.,12.0,0.,12.0,0.,12.0,0.,12.0
1980-11-16 00:21:37.300 ,1,1,0.,12.0,0.,12.0,0.,12.0,0.,12.0
1980-11-16 00:21:49.300 ,1,0,0.,12.0,0.,12.0,0.,12.0,0.,12.0
1980-11-16 00:22:01.300 ,1,0,0.,12.0,0.,12.0,0.,12.0,0.,12.0
1980-11-16 00:22:13.300 ,0,1,0.,12.0,0.,12.0,0.,12.0,0.,12.0
1980-11-16 00:22:25.300 ,0,1,0.,12.0,0.,12.0,0.,12.0,0.,12.0
1980-11-16 00:22:37.300 ,0,0,0.,12.0,0.,12.0,0.,12.0,0.,12.0
1980-11-16 00:22:49.300 ,0,0,0.,12.0,0.,12.0,0.,12.0,0.,12.0
1980-11-16 00:23:01.300 ,0,1,0.,12.0,0.,12.0,0.,12.0,0.,12.0
1980-11-16 00:23:13.300 ,0,1,0.,12.0,0.,12.0,0.,12.0,0.,12.0
1980-11-16 00:23:25.300 ,0,0,0.,12.0,0.,12.0,0.,12.0,0.,12.0
1980-11-16 00:23:37.300 ,0,0,0.,12.0,0.,12.0,0.,12.0,0.,12.0
1980-11-16 00:23:49.300 ,1,1,0.,12.0,0.,12.0,0.,12.0,0.,12.0
1980-11-16 00:24:01.300 ,1,1,0.,12.0,0.,12.0,0.,12.0,1.,12.0
1980-11-16 00:24:13.300 ,1,0,0.,12.0,0.,12.0,0.,12.0,0.,12.0
1980-11-16 00:24:25.300 ,1,0,0.,12.0,0.,12.0,0.,12.0,0.,12.0
1980-11-16 00:24:37.300 ,2,1,0.,12.0,0.,12.0,0.,12.0,0.,12.0
1980-11-16 00:24:49.300 ,2,1,0.,12.0,0.,12.0,0.,12.0,0.,12.0
1980-11-16 00:25:01.300 ,2,0,0.,12.0,0.,12.0,0.,12.0,0.,12.0
1980-11-16 00:25:13.300 ,2,0,0.,12.0,0.,12.0,0.,12.0,0.,12.0
1980-11-16 00:25:25.300 ,3,1,0.,12.0,0.,12.0,0.,12.0,0.,12.0
1980-11-16 00:25:37.300 ,3,1,0.,12.0,0.,12.0,0.,12.0,0.,12.0
1980-11-16 00:25:49.300 ,3,0,0.,12.0,0.,12.0,0.,12.0,0.,12.0
1980-11-16 00:26:01.300 ,3,0,0.,12.0,0.,12.0,0.,12.0,0.,12.0
1980-11-16 00:26:13.300 ,4,1,0.,12.0,0.,12.0,0.,12.0,0.,12.0
1980-11-16 00:26:25.300 ,4,1,0.,12.0,0.,12.0,0.,12.0,0.,12.0
1980-11-16 00:26:37.300 ,4,0,0.,12.0,0.,12.0,0.,12.0,0.,12.0
1980-11-16 00:26:49.300 ,4,0,0.,12.0,0.,12.0,0.,12.0,0.,12.0
1980-11-16 00:27:01.300 ,5,1,0.,12.0,0.,12.0,0.,12.0,0.,12.0
1980-11-16 00:27:13.300 ,5,1,0.,12.0,0.,12.0,0.,12.0,0.,12.0
1980-11-16 00:27:25.300 ,5,0,0.,12.0,0.,12.0,0.,12.0,0.,12.0
1980-11-16 00:27:37.300 ,5,0,0.,12.0,0.,12.0,0.,12.0,0.,12.0
1980-11-16 00:27:49.300 ,6,1,0.,12.0,0.,12.0,0.,12.0,0.,12.0
1980-11-16 00:28:01.300 ,6,1,0.,12.0,0.,12.0,0.,12.0,0.,12.0
1980-11-16 00:28:13.300 ,6,0,0.,12.0,0.,12.0,0.,12.0,0.,12.0
1980-11-16 00:28:25.300 ,6,0,0.,12.0,0.,12.0,0.,12.0,0.,12.0
1980-11-16 00:28:37.300 ,7,1,0.,12.0,0.,12.0,0.,12.0,0.,12.0
1980-11-16 00:28:49.300 ,7,1,0.,12.0,3.,12.0,0.,12.0,0.,12.0
1980-11-16 00:29:01.300 ,7,0,0.,12.0,3.,12.0,0.,12.0,0.,12.0
1980-11-16 00:29:13.300 ,7,0,0.,12.0,4.,12.0,0.,12.0,0.,12.0
1980-11-16 00:29:25.300 ,7,1,0.,12.0,4.,12.0,0.,12.0,0.,12.0
1980-11-16 00:29:37.300 ,7,1,0.,12.0,1.,12.0,0.,12.0,0.,12.0
1980-11-16 00:29:49.300 ,7,0,0.,12.0,2.,12.0,0.,12.0,0.,12.0
1980-11-16 00:30:01.300 ,7,0,0.,12.0,2.,12.0,0.,12.0,0.,12.0
1980-11-16 00:30:13.300 ,6,1,0.,12.0,3.,12.0,0.,12.0,0.,12.0
1980-11-16 00:30:25.300 ,6,1,0.,12.0,1.,12.0,0.,12.0,0.,12.0
1980-11-16 00:30:37.300 ,6,0,0.,12.0,0.,12.0,0.,12.0,0.,12.0
1980-11-16 00:30:49.300 ,6,0,0.,12.0,0.,12.0,0.,12.0,0.,12.0
1980-11-16 00:31:01.300 ,5,1,0.,12.0,0.,12.0,0.,12.0,0.,12.0
1980-11-16 00:31:13.300 ,5,1,0.,12.0,0.,12.0,0.,12.0,0.,12.0
1980-11-16 00:31:25.300 ,5,0,0.,12.0,0.,12.0,0.,12.0,0.,12.0
1980-11-16 00:31:37.300 ,5,0,0.,12.0,0.,12.0,0.,12.0,0.,12.0
1980-11-16 00:31:49.300 ,4,1,0.,12.0,0.,12.0,0.,12.0,0.,12.0
1980-11-16 00:32:01.300 ,4,1,0.,12.0,0.,12.0,0.,12.0,0.,12.0
1980-11-16 00:32:13.300 ,4,0,0.,12.0,0.,12.0,0.,12.0,0.,12.0
1980-11-16 00:32:25.300 ,4,0,0.,12.0,0.,12.0,0.,12.0,0.,12.0
1980-11-16 00:32:37.300 ,3,1,0.,12.0,0.,12.0,0.,12.0,0.,12.0
1980-11-16 00:32:49.300 ,3,1,0.,12.0,0.,12.0,0.,12.0,0.,12.0
1980-11-16 00:33:01.300 ,3,0,0.,12.0,0.,12.0,0.,12.0,0.,12.0
1980-11-16 00:33:13.300 ,3,0,0.,12.0,1.,12.0,0.,12.0,1.,12.0
1980-11-16 00:33:25.300 ,2,1,0.,12.0,0.,12.0,0.,12.0,0.,12.0
1980-11-16 00:33:37.300 ,2,1,0.,12.0,0.,12.0,0.,12.0,0.,12.0
1980-11-16 00:33:49.300 ,2,0,0.,12.0,0.,12.0,0.,12.0,0.,12.0
1980-11-16 00:34:01.300 ,2,0,0.,12.0,0.,12.0,0.,12.0,0.,12.0
1980-11-16 00:34:13.300 ,1,1,0.,12.0,0.,12.0,0.,12.0,0.,12.0
1980-11-16 00:34:25.300 ,1,1,0.,12.0,0.,12.0,0.,12.0,0.,12.0
1980-11-16 00:34:37.300 ,1,0,0.,12.0,0.,12.0,0.,12.0,0.,12.0
1980-11-16 00:34:49.300 ,1,0,0.,12.0,0.,12.0,0.,12.0,0.,12.0
1980-11-16 00:35:01.300 ,0,1,0.,12.0,0.,12.0,0.,12.0,0.,12.0
1980-11-16 00:35:13.300 ,0,1,0.,12.0,0.,12.0,0.,12.0,0.,12.0
1980-11-16 00:35:25.300 ,0,0,0.,12.0,0.,12.0,0.,12.0,0.,12.0
1980-11-16 00:35:37.300 ,0,0,0.,12.0,0.,12.0,0.,12.0,0.,12.0
1980-11-16 00:35:49.300 ,0,1,0.,12.0,0.,12.0,0.,12.0,0.,12.0
1980-11-16 00:36:01.300 ,0,1,0.,12.0,0.,12.0,0.,12.0,0.,12.0
1980-11-16 00:36:13.300 ,0,0,0.,12.0,0.,12.0,0.,12.0,0.,12.0
1980-11-16 00:36:25.300 ,0,0,0.,12.0,0.,12.0,0.,12.0,0.,12.0
1980-11-16 00:36:37.300 ,1,1,0.,12.0,0.,12.0,0.,12.0,0.,12.0
1980-11-16 00:36:49.300 ,1,1,0.,12.0,0.,12.0,0.,12.0,0.,12.0
1980-11-16 00:37:01.300 ,1,0,0.,12.0,0.,12.0,0.,12.0,0.,12.0
1980-11-16 00:37:13.300 ,1,0,0.,12.0,0.,12.0,0.,12.0,0.,12.0
1980-11-16 00:37:25.300 ,2,1,0.,12.0,0.,12.0,0.,12.0,0.,12.0
1980-11-16 00:37:37.300 ,2,1,0.,12.0,0.,12.0,0.,12.0,0.,12.0
1980-11-16 00:37:49.300 ,2,0,0.,12.0,0.,12.0,0.,12.0,0.,12.0
1980-11-16 00:38:01.300 ,2,0,0.,12.0,0.,12.0,0.,12.0,0.,12.0
1980-11-16 00:38:13.300 ,3,1,0.,12.0,0.,12.0,0.,12.0,0.,12.0
1980-11-16 00:38:25.300 ,3,1,0.,12.0,0.,12.0,0.,12.0,0.,12.0
1980-11-16 00:38:37.300 ,0,0,0.,12.0,0.,12.0,0.,12.0,0.,12.0
1980-11-16 00:38:49.300 ,0,0,0.,12.0,0.,12.0,0.,12.0,0.,12.0
1980-11-16 00:39:01.300 ,4,1,0.,12.0,0.,12.0,0.,12.0,0.,12.0
1980-11-16 00:39:13.300 ,4,1,0.,12.0,0.,12.0,0.,12.0,0.,12.0
1980-11-16 00:39:25.300 ,4,0,0.,12.0,0.,12.0,0.,12.0,0.,12.0
1980-11-16 00:39:37.300 ,4,0,0.,12.0,0.,12.0,0.,12.0,0.,12.0
1980-11-16 00:39:49.300 ,5,1,0.,12.0,0.,12.0,0.,12.0,0.,12.0
1980-11-16 00:40:01.300 ,5,1,0.,12.0,0.,12.0,0.,12.0,0.,12.0
1980-11-16 00:40:13.300 ,5,0,0.,12.0,0.,12.0,0.,12.0,0.,12.0
1980-11-16 00:40:25.300 ,5,0,0.,12.0,0.,12.0,0.,12.0,0.,12.0
1980-11-16 00:40:37.300 ,6,1,0.,12.0,0.,12.0,0.,12.0,0.,12.0
1980-11-16 00:40:49.300 ,6,1,0.,12.0,0.,12.0,0.,12.0,0.,12.0
1980-11-16 00:41:01.300 ,6,0,0.,12.0,0.,12.0,0.,12.0,0.,12.0
1980-11-16 00:41:13.300 ,6,0,0.,12.0,0.,12.0,0.,12.0,0.,12.0
1980-11-16 00:41:25.300 ,7,1,0.,12.0,0.,12.0,0.,12.0,0.,12.0
1980-11-16 00:41:37.300 ,7,1,0.,12.0,3.,12.0,0.,12.0,0.,12.0
1980-11-16 00:41:49.300 ,7,0,0.,12.0,4.,12.0,0.,12.0,0.,12.0
1980-11-16 00:42:01.300 ,7,0,0.,12.0,6.,12.0,0.,12.0,0.,12.0
1980-11-16 00:42:13.300 ,7,1,0.,12.0,6.,12.0,0.,12.0,0.,12.0
1980-11-16 00:42:25.300 ,7,1,0.,12.0,1.,12.0,0.,12.0,0.,12.0
1980-11-16 00:42:37.300 ,7,0,0.,12.0,2.,12.0,0.,12.0,0.,12.0
1980-11-16 00:42:49.300 ,7,0,0.,12.0,6.,12.0,0.,12.0,0.,12.0
1980-11-16 00:43:01.300 ,6,1,0.,12.0,4.,12.0,0.,12.0,0.,12.0
1980-11-16 00:43:13.300 ,6,1,0.,12.0,0.,12.0,0.,12.0,0.,12.0
1980-11-16 00:43:25.300 ,6,0,0.,12.0,0.,12.0,0.,12.0,0.,12.0
1980-11-16 00:43:37.300 ,6,0,0.,12.0,0.,12.0,0.,12.0,0.,12.0
1980-11-16 00:43:49.300 ,5,1,0.,12.0,0.,12.0,0.,12.0,0.,12.0
1980-11-16 00:44:01.300 ,5,1,0.,12.0,0.,12.0,0.,12.0,0.,12.0
1980-11-16 00:44:13.300 ,5,0,0.,12.0,0.,12.0,0.,12.0,0.,12.0
1980-11-16 00:44:25.300 ,5,0,0.,12.0,0.,12.0,0.,12.0,0.,12.0
1980-11-16 00:44:37.300 ,4,1,0.,12.0,0.,12.0,0.,12.0,0.,12.0
1980-11-16 00:44:49.300 ,4,1,0.,12.0,0.,12.0,0.,12.0,0.,12.0
1980-11-16 00:45:01.300 ,4,0,0.,12.0,0.,12.0,0.,12.0,0.,12.0
1980-11-16 00:45:13.300 ,4,0,1.,12.0,0.,12.0,0.,12.0,0.,12.0
1980-11-16 00:45:25.300 ,3,1,0.,12.0,0.,12.0,0.,12.0,0.,12.0
1980-11-16 00:45:37.300 ,3,1,0.,12.0,0.,12.0,0.,12.0,0.,12.0
1980-11-16 00:45:49.300 ,0,0,0.,12.0,0.,12.0,0.,12.0,0.,12.0
1980-11-16 00:46:01.300 ,0,0,0.,12.0,0.,12.0,0.,12.0,0.,12.0
1980-11-16 00:46:29.500 ,0,0,,0,,0,,0,,0
1980-11-16 00:46:41.500 ,0,0,,0,,0,,0,,0
1980-11-16 00:46:37.300 ,0,0,0.,12.0,0.,12.0,0.,12.0,0.,12.0
1980-11-16 00:46:49.300 ,0,0,0.,12.0,0.,12.0,0.,12.0,0.,12.0
1980-11-16 00:47:01.300 ,1,1,0.,12.0,0.,12.0,0.,12.0,0.,12.0
1980-11-16 00:47:13.300 ,1,1,0.,12.0,0.,12.0,0.,12.0,0.,12.0
1980-11-16 00:47:25.300 ,1,0,0.,12.0,0.,12.0,0.,12.0,0.,12.0
1980-11-16 00:47:37.300 ,1,0,0.,12.0,0.,12.0,0.,12.0,0.,12.0
1980-11-16 00:47:49.300 ,0,1,0.,12.0,0.,12.0,0.,12.0,0.,12.0
1980-11-16 00:48:01.300 ,0,1,0.,12.0,0.,12.0,0.,12.0,0.,12.0
1980-11-16 00:48:13.300 ,0,0,0.,12.0,0.,12.0,0.,12.0,0.,12.0
1980-11-16 00:48:25.300 ,0,0,0.,12.0,0.,12.0,0.,12.0,0.,12.0
1980-11-16 00:48:37.300 ,0,1,0.,12.0,0.,12.0,0.,12.0,0.,12.0
1980-11-16 00:48:49.300 ,0,1,0.,12.0,0.,12.0,0.,12.0,0.,12.0
1980-11-16 00:49:01.300 ,0,0,0.,12.0,0.,12.0,0.,12.0,0.,12.0
1980-11-16 00:49:13.300 ,0,0,0.,12.0,0.,12.0,0.,12.0,0.,12.0
1980-11-16 00:49:25.300 ,1,1,0.,12.0,0.,12.0,0.,12.0,0.,12.0
1980-11-16 00:49:37.300 ,1,1,0.,12.0,0.,12.0,0.,12.0,0.,12.0
1980-11-16 00:49:49.300 ,1,0,0.,12.0,0.,12.0,0.,12.0,0.,12.0
1980-11-16 00:50:01.300 ,1,0,0.,12.0,0.,12.0,0.,12.0,0.,12.0
1980-11-16 00:50:13.300 ,2,1,0.,12.0,0.,12.0,0.,12.0,0.,12.0
1980-11-16 00:50:25.300 ,2,1,0.,12.0,0.,12.0,0.,12.0,0.,12.0
1980-11-16 00:50:37.300 ,2,0,0.,12.0,0.,12.0,0.,12.0,0.,12.0
1980-11-16 00:50:49.300 ,2,0,0.,12.0,0.,12.0,0.,12.0,0.,12.0
1980-11-16 00:51:01.300 ,3,1,0.,12.0,0.,12.0,0.,12.0,0.,12.0
1980-11-16 00:51:13.300 ,3,1,0.,12.0,0.,12.0,0.,12.0,0.,12.0
1980-11-16 00:51:25.300 ,3,0,0.,12.0,0.,12.0,0.,12.0,0.,12.0
1980-11-16 00:51:37.300 ,3,0,0.,12.0,0.,12.0,0.,12.0,0.,12.0
1980-11-16 00:51:49.300 ,4,1,0.,12.0,0.,12.0,0.,12.0,0.,12.0
1980-11-16 00:52:01.300 ,4,1,0.,12.0,0.,12.0,0.,12.0,0.,12.0
1980-11-16 00:52:13.300 ,4,0,0.,12.0,0.,12.0,0.,12.0,0.,12.0
1980-11-16 00:52:25.300 ,4,0,0.,12.0,1.,12.0,0.,12.0,0.,12.0
1980-11-16 00:52:37.300 ,5,1,0.,12.0,0.,12.0,0.,12.0,0.,12.0
1980-11-16 00:52:49.300 ,5,1,0.,12.0,0.,12.0,0.,12.0,0.,12.0
1980-11-16 00:53:01.300 ,5,0,0.,12.0,0.,12.0,0.,12.0,0.,12.0
1980-11-16 00:53:13.300 ,5,0,0.,12.0,0.,12.0,0.,12.0,0.,12.0
1980-11-16 00:53:25.300 ,6,1,0.,12.0,0.,12.0,0.,12.0,0.,12.0
1980-11-16 00:53:37.300 ,6,1,0.,12.0,0.,12.0,0.,12.0,0.,12.0
1980-11-16 00:53:49.300 ,6,0,0.,12.0,0.,12.0,0.,12.0,0.,12.0
1980-11-16 00:54:01.300 ,6,0,0.,12.0,0.,12.0,0.,12.0,0.,12.0
1980-11-16 00:54:13.300 ,7,1,0.,12.0,0.,12.0,0.,12.0,0.,12.0
1980-11-16 00:54:25.300 ,7,1,0.,12.0,0.,12.0,1.,12.0,0.,12.0
1980-11-16 00:54:37.300 ,7,0,0.,12.0,7.,12.0,0.,12.0,0.,12.0
1980-11-16 00:54:49.300 ,7,0,0.,12.0,2.,12.0,0.,12.0,0.,12.0
1980-11-16 00:55:01.300 ,7,1,0.,12.0,2.,12.0,0.,12.0,0.,12.0
1980-11-16 00:55:13.300 ,7,1,0.,12.0,7.,12.0,0.,12.0,0.,12.0
1980-11-16 00:55:25.300 ,7,0,0.,12.0,4.,12.0,0.,12.0,0.,12.0
1980-11-16 00:55:37.300 ,7,0,0.,12.0,1.,12.0,0.,12.0,0.,12.0
1980-11-16 00:55:49.300 ,6,1,0.,12.0,3.,12.0,0.,12.0,0.,12.0
1980-11-16 00:56:01.300 ,6,1,0.,12.0,0.,12.0,0.,12.0,0.,12.0
1980-11-16 00:56:13.300 ,0,0,0.,12.0,0.,12.0,0.,12.0,0.,12.0
1980-11-16 00:56:25.300 ,0,0,0.,12.0,0.,12.0,0.,12.0,0.,12.0
1980-11-16 00:59:07.300 ,0,0,,0,,0,,0,,0
1980-11-16 00:59:19.300 ,0,0,0.,12.0,0.,12.0,0.,12.0,0.,12.0
1980-11-16 00:59:25.300 ,0,0,0.,12.0,0.,12.0,0.,12.0,0.,12.0
1980-11-16 00:59:37.300 ,0,0,0.,12.0,0.,12.0,0.,12.0,0.,12.0
1980-11-16 00:59:49.300 ,1,1,0.,12.0,0.,12.0,0.,12.0,0.,12.0
1980-11-16 01:00:01.300 ,1,1,0.,12.0,0.,12.0,0.,12.0,0.,12.0
1980-11-16 01:00:13.300 ,1,0,0.,12.0,0.,12.0,0.,12.0,0.,12.0
1980-11-16 01:00:25.300 ,1,0,0.,12.0,0.,12.0,0.,12.0,0.,12.0
1980-11-16 01:00:37.300 ,0,1,0.,12.0,0.,12.0,0.,12.0,0.,12.0
1980-11-16 01:00:49.300 ,0,1,0.,12.0,0.,12.0,0.,12.0,0.,12.0
1980-11-16 01:01:01.300 ,0,0,0.,12.0,0.,12.0,0.,12.0,0.,12.0
1980-11-16 01:01:13.300 ,0,0,0.,12.0,0.,12.0,0.,12.0,0.,12.0
1980-11-16 01:01:25.300 ,0,1,0.,12.0,0.,12.0,0.,12.0,0.,12.0
1980-11-16 01:01:37.300 ,0,1,0.,12.0,0.,12.0,0.,12.0,0.,12.0
1980-11-16 01:01:49.300 ,0,0,0.,12.0,0.,12.0,0.,12.0,0.,12.0
1980-11-16 01:02:01.300 ,0,0,0.,12.0,0.,12.0,0.,12.0,0.,12.0
1980-11-16 01:02:13.300 ,1,1,0.,12.0,0.,12.0,0.,12.0,0.,12.0
1980-11-16 01:02:25.300 ,1,1,0.,12.0,0.,12.0,0.,12.0,0.,12.0
1980-11-16 01:02:37.300 ,1,0,0.,12.0,0.,12.0,0.,12.0,0.,12.0
1980-11-16 01:02:49.300 ,1,0,0.,12.0,0.,12.0,0.,12.0,0.,12.0
1980-11-16 01:03:01.300 ,2,1,0.,12.0,0.,12.0,0.,12.0,0.,12.0
1980-11-16 01:03:13.300 ,2,1,0.,12.0,0.,12.0,0.,12.0,0.,12.0
1980-11-16 01:03:25.300 ,2,0,0.,12.0,0.,12.0,0.,12.0,0.,12.0
1980-11-16 01:03:37.300 ,2,0,0.,12.0,0.,12.0,0.,12.0,0.,12.0
1980-11-16 01:03:49.300 ,3,1,0.,12.0,0.,12.0,0.,12.0,0.,12.0
1980-11-16 01:04:01.300 ,3,1,0.,12.0,0.,12.0,0.,12.0,0.,12.0
1980-11-16 01:04:13.300 ,3,0,0.,12.0,0.,12.0,0.,12.0,0.,12.0
1980-11-16 01:04:25.300 ,3,0,0.,12.0,0.,12.0,0.,12.0,0.,12.0
1980-11-16 01:04:37.300 ,4,1,0.,12.0,0.,12.0,0.,12.0,0.,12.0
1980-11-16 01:04:49.300 ,4,1,0.,12.0,0.,12.0,0.,12.0,0.,12.0
1980-11-16 01:05:01.300 ,4,0,0.,12.0,0.,12.0,0.,12.0,0.,12.0
1980-11-16 01:05:13.300 ,4,0,0.,12.0,0.,12.0,0.,12.0,0.,12.0
1980-11-16 01:05:25.300 ,5,1,0.,12.0,0.,12.0,0.,12.0,0.,12.0
1980-11-16 01:05:37.300 ,5,1,0.,12.0,0.,12.0,0.,12.0,0.,12.0
1980-11-16 01:05:49.300 ,5,0,0.,12.0,0.,12.0,0.,12.0,0.,12.0
1980-11-16 01:06:01.300 ,5,0,0.,12.0,0.,12.0,0.,12.0,0.,12.0
1980-11-16 01:06:13.300 ,6,1,0.,12.0,0.,12.0,0.,12.0,0.,12.0
1980-11-16 01:06:25.300 ,6,1,0.,12.0,0.,12.0,0.,12.0,0.,12.0
1980-11-16 01:06:37.300 ,6,0,0.,12.0,0.,12.0,0.,12.0,0.,12.0
1980-11-16 01:06:49.300 ,6,0,0.,12.0,0.,12.0,0.,12.0,0.,12.0
1980-11-16 01:07:01.300 ,7,1,0.,12.0,0.,12.0,0.,12.0,0.,12.0
1980-11-16 01:07:13.300 ,7,1,0.,12.0,1.,12.0,0.,12.0,0.,12.0
1980-11-16 01:07:25.300 ,7,0,0.,12.0,2.,12.0,0.,12.0,0.,12.0
1980-11-16 01:07:37.300 ,7,0,0.,12.0,6.,12.0,0.,12.0,0.,12.0
1980-11-16 01:07:49.300 ,7,1,0.,12.0,7.,12.0,0.,12.0,0.,12.0
1980-11-16 01:08:01.300 ,7,1,0.,12.0,4.,12.0,0.,12.0,0.,12.0
1980-11-16 01:08:13.300 ,7,0,0.,12.0,2.,12.0,0.,12.0,0.,12.0
1980-11-16 01:08:25.300 ,7,0,0.,12.0,1.,12.0,0.,12.0,0.,12.0
1980-11-16 01:08:37.300 ,6,1,0.,12.0,3.,12.0,0.,12.0,0.,12.0
1980-11-16 01:08:49.300 ,6,1,0.,12.0,2.,12.0,0.,12.0,0.,12.0
1980-11-16 01:09:01.300 ,6,0,0.,12.0,0.,12.0,0.,12.0,0.,12.0
1980-11-16 01:09:13.300 ,6,0,0.,12.0,0.,12.0,0.,12.0,0.,12.0
1980-11-16 01:09:25.300 ,5,1,0.,12.0,0.,12.0,0.,12.0,0.,12.0
1980-11-16 01:09:37.300 ,5,1,0.,12.0,0.,12.0,0.,12.0,0.,12.0
1980-11-16 01:09:49.300 ,5,0,0.,12.0,0.,12.0,0.,12.0,0.,12.0
1980-11-16 01:10:01.300 ,5,0,0.,12.0,0.,12.0,0.,12.0,0.,12.0
1980-11-16 01:10:13.300 ,4,1,0.,12.0,0.,12.0,0.,12.0,0.,12.0
1980-11-16 01:10:25.300 ,4,1,0.,12.0,0.,12.0,0.,12.0,0.,12.0
1980-11-16 01:10:37.300 ,4,0,0.,12.0,0.,12.0,0.,12.0,0.,12.0
1980-11-16 01:10:49.300 ,4,0,0.,12.0,0.,12.0,0.,12.0,0.,12.0
1980-11-16 01:11:01.300 ,3,1,0.,12.0,0.,12.0,0.,12.0,0.,12.0
1980-11-16 01:11:13.300 ,3,1,0.,12.0,0.,12.0,0.,12.0,0.,12.0
1980-11-16 01:11:25.300 ,3,0,0.,12.0,0.,12.0,0.,12.0,0.,12.0
1980-11-16 01:11:37.300 ,3,0,0.,12.0,0.,12.0,0.,12.0,0.,12.0
1980-11-16 01:11:49.300 ,2,1,0.,12.0,0.,12.0,0.,12.0,0.,12.0
1980-11-16 01:12:01.300 ,2,1,0.,12.0,0.,12.0,0.,12.0,0.,12.0
1980-11-16 01:12:13.300 ,2,0,0.,12.0,0.,12.0,0.,12.0,0.,12.0
1980-11-16 01:12:25.300 ,2,0,0.,12.0,0.,12.0,0.,12.0,0.,12.0
1980-11-16 01:12:37.300 ,1,1,0.,12.0,0.,12.0,0.,12.0,0.,12.0
1980-11-16 01:12:49.300 ,1,1,0.,12.0,0.,12.0,0.,12.0,0.,12.0
1980-11-16 01:13:01.300 ,1,0,0.,12.0,0.,12.0,0.,12.0,0.,12.0
1980-11-16 01:13:13.300 ,1,0,0.,12.0,0.,12.0,0.,12.0,0.,12.0
1980-11-16 01:13:25.300 ,0,1,0.,12.0,0.,12.0,0.,12.0,0.,12.0
1980-11-16 01:13:37.300 ,0,1,0.,12.0,1.,12.0,0.,12.0,0.,12.0
1980-11-16 01:13:49.300 ,0,0,0.,12.0,0.,12.0,0.,12.0,0.,12.0
1980-11-16 01:14:01.300 ,0,0,0.,12.0,0.,12.0,0.,12.0,0.,12.0
1980-11-16 01:14:13.300 ,0,1,0.,12.0,0.,12.0,0.,12.0,0.,12.0
1980-11-16 01:14:25.300 ,0,1,0.,12.0,0.,12.0,0.,12.0,0.,12.0
1980-11-16 01:14:37.300 ,0,0,0.,12.0,0.,12.0,0.,12.0,0.,12.0
1980-11-16 01:14:49.300 ,0,0,0.,12.0,0.,12.0,0.,12.0,0.,12.0
1980-11-16 01:15:01.300 ,1,1,0.,12.0,0.,12.0,0.,12.0,0.,12.0
1980-11-16 01:15:13.300 ,1,1,0.,12.0,0.,12.0,0.,12.0,0.,12.0
1980-11-16 01:15:25.300 ,1,0,0.,12.0,0.,12.0,0.,12.0,0.,12.0
1980-11-16 01:15:37.300 ,1,0,0.,12.0,0.,12.0,0.,12.0,0.,12.0
1980-11-16 01:15:49.300 ,2,1,0.,12.0,0.,12.0,0.,12.0,0.,12.0
1980-11-16 01:16:01.300 ,2,1,0.,12.0,0.,12.0,0.,12.0,0.,12.0
1980-11-16 01:16:13.300 ,2,0,0.,12.0,0.,12.0,0.,12.0,0.,12.0
1980-11-16 01:16:25.300 ,2,0,0.,12.0,0.,12.0,0.,12.0,0.,12.0
1980-11-16 01:16:37.300 ,3,1,0.,12.0,0.,12.0,0.,12.0,0.,12.0
1980-11-16 01:16:49.300 ,3,1,0.,12.0,0.,12.0,0.,12.0,0.,12.0
1980-11-16 01:17:01.300 ,3,0,0.,12.0,0.,12.0,0.,12.0,0.,12.0
1980-11-16 01:17:13.300 ,3,0,0.,12.0,0.,12.0,0.,12.0,0.,12.0
1980-11-16 01:17:25.300 ,4,1,0.,12.0,1.,12.0,0.,12.0,0.,12.0
1980-11-16 01:17:37.300 ,4,1,0.,12.0,0.,12.0,0.,12.0,0.,12.0
1980-11-16 01:17:49.300 ,4,0,0.,12.0,0.,12.0,0.,12.0,0.,12.0
1980-11-16 01:18:01.300 ,4,0,0.,12.0,1.,12.0,0.,12.0,0.,12.0
1980-11-16 01:18:13.300 ,5,1,0.,12.0,0.,12.0,0.,12.0,0.,12.0
1980-11-16 01:18:25.300 ,5,1,0.,12.0,0.,12.0,0.,12.0,0.,12.0
1980-11-16 01:18:37.300 ,5,0,0.,12.0,0.,12.0,0.,12.0,0.,12.0
1980-11-16 01:18:49.300 ,5,0,0.,12.0,0.,12.0,0.,12.0,0.,12.0
1980-11-16 01:19:01.300 ,6,1,0.,12.0,0.,12.0,0.,12.0,0.,12.0
1980-11-16 01:19:13.300 ,6,1,0.,12.0,0.,12.0,0.,12.0,0.,12.0
1980-11-16 01:19:25.300 ,6,0,0.,12.0,0.,12.0,0.,12.0,0.,12.0
1980-11-16 01:19:37.300 ,6,0,0.,12.0,0.,12.0,0.,12.0,0.,12.0
1980-11-16 01:19:49.300 ,7,1,0.,12.0,0.,12.0,0.,12.0,0.,12.0
1980-11-16 01:20:01.300 ,7,1,0.,12.0,2.,12.0,0.,12.0,0.,12.0
1980-11-16 01:20:13.300 ,0,0,0.,12.0,3.,12.0,0.,12.0,0.,12.0